When you browse on this site, cookies collect data to enhance your experience and personalize the content and advertising you see.
Visit our Privacy Policy to learn more. By continuing to use the site, you agree to this use of cookies and data.
  • En España
  • Lista de países
  • Para 7 días
  • Temperatura del agua
  • Mapa Satelital
  • El tiempo en el mapa
  • Informadores
  • user-avatar
    Iniciar sesión

    Tiempo cada hora Salta

    Hoy, 24 Julio, Miércoles

    Tiempo Temperatura Precipitaciones Viento Presión Humedad
    00:00 +3°C° 0 mm 1 mps 651 mmHg 64%
    01:00 +3°C° 0 mm 1 mps 651 mmHg 65%
    02:00 +3°C° 0 mm 1 mps 651 mmHg 66%
    03:00 +2°C° 0 mm 1 mps 651 mmHg 66%
    04:00 +2°C° 0 mm 1 mps 651 mmHg 67%
    05:00 +2°C° 0 mm 1 mps 651 mmHg 67%
    06:00 +3°C° 0 mm 1 mps 651 mmHg 64%
    07:00 +4°C° 0 mm 1 mps 652 mmHg 61%
    08:00 +3°C° 0 mm 0 mps 653 mmHg 58%
    09:00 +6°C° 0 mm 1 mps 654 mmHg 52%
    10:00 +8°C° 0 mm 1 mps 654 mmHg 45%
    11:00 +9°C° 0 mm 2 mps 654 mmHg 39%
    12:00 +10°C° 0 mm 2 mps 654 mmHg 39%
    13:00 +10°C° 0 mm 2 mps 653 mmHg 38%
    14:00 +10°C° 0 mm 2 mps 653 mmHg 38%
    15:00 +10°C° 0.1 mm 2 mps 652 mmHg 41%
    16:00 +9°C° 0.1 mm 2 mps 652 mmHg 45%
    17:00 +8°C° 0.1 mm 2 mps 652 mmHg 48%
    18:00 +7°C° 0 mm 2 mps 652 mmHg 54%
    19:00 +6°C° 0 mm 1 mps 652 mmHg 61%
    20:00 +5°C° 0 mm 1 mps 652 mmHg 67%
    21:00 +4°C° 0 mm 1 mps 652 mmHg 70%
    22:00 +3°C° 0 mm 0 mps 652 mmHg 73%
    23:00 +2°C° 0 mm 0 mps 652 mmHg 76%

    Mañana, 25 Julio, Jueves

    Tiempo Temperatura Precipitaciones Viento Presión Humedad
    00:00 +2°C° 0 mm 0 mps 652 mmHg 78%
    01:00 +2°C° 0 mm 0 mps 651 mmHg 80%
    02:00 +1°C° 0 mm 0 mps 651 mmHg 81%
    03:00 +1°C° 0 mm 0 mps 650 mmHg 81%
    04:00 +1°C° 0 mm 0 mps 650 mmHg 80%
    05:00 +1°C° 0 mm 0 mps 650 mmHg 79%
    06:00 +2°C° 0 mm 0 mps 651 mmHg 74%
    07:00 +3°C° 0 mm 0 mps 651 mmHg 70%
    08:00 +4°C° 0 mm 1 mps 652 mmHg 65%
    09:00 +7°C° 0 mm 1 mps 652 mmHg 56%
    10:00 +10°C° 0 mm 1 mps 653 mmHg 47%
    11:00 +13°C° 0 mm 1 mps 654 mmHg 37%
    12:00 +14°C° 0 mm 1 mps 653 mmHg 36%
    13:00 +14°C° 0 mm 2 mps 653 mmHg 34%
    14:00 +15°C° 0 mm 2 mps 652 mmHg 32%
    15:00 +15°C° 0 mm 2 mps 652 mmHg 34%
    16:00 +14°C° 0 mm 2 mps 652 mmHg 36%
    17:00 +14°C° 0 mm 2 mps 651 mmHg 38%
    18:00 +11°C° 0 mm 1 mps 651 mmHg 42%
    19:00 +9°C° 0 mm 1 mps 651 mmHg 47%
    20:00 +7°C° 0 mm 1 mps 651 mmHg 52%
    21:00 +7°C° 0 mm 1 mps 652 mmHg 53%
    22:00 +6°C° 0 mm 1 mps 652 mmHg 54%
    23:00 +6°C° 0 mm 1 mps 652 mmHg 55%

    Pasado mañana, 26 Julio, Viernes

    Tiempo Temperatura Precipitaciones Viento Presión Humedad
    00:00 +5°C° 0 mm 1 mps 652 mmHg 55%
    01:00 +5°C° 0 mm 1 mps 652 mmHg 56%
    02:00 +5°C° 0 mm 1 mps 651 mmHg 56%
    03:00 +5°C° 0 mm 1 mps 651 mmHg 56%
    04:00 +5°C° 0 mm 1 mps 651 mmHg 55%
    05:00 +4°C° 0 mm 1 mps 651 mmHg 55%
    06:00 +5°C° 0 mm 1 mps 652 mmHg 51%
    07:00 +7°C° 0 mm 1 mps 653 mmHg 47%
    08:00 +8°C° 0 mm 1 mps 654 mmHg 44%
    09:00 +11°C° 0 mm 1 mps 655 mmHg 38%
    10:00 +13°C° 0 mm 1 mps 655 mmHg 33%
    11:00 +16°C° 0 mm 1 mps 656 mmHg 27%
    12:00 +17°C° 0 mm 2 mps 656 mmHg 26%
    13:00 +18°C° 0 mm 2 mps 655 mmHg 25%
    14:00 +18°C° 0 mm 3 mps 655 mmHg 24%
    15:00 +18°C° 0 mm 2 mps 654 mmHg 26%
    16:00 +17°C° 0 mm 2 mps 654 mmHg 27%
    17:00 +16°C° 0 mm 2 mps 654 mmHg 29%
    18:00 +14°C° 0 mm 2 mps 654 mmHg 34%
    19:00 +12°C° 0 mm 1 mps 653 mmHg 40%
    20:00 +10°C° 0 mm 1 mps 653 mmHg 45%
    21:00 +8°C° 0 mm 0 mps 653 mmHg 47%
    22:00 +7°C° 0 mm 0 mps 654 mmHg 49%
    23:00 +7°C° 0 mm 0 mps 654 mmHg 51%

    27 Julio, Sábado

    Tiempo Temperatura Precipitaciones Viento Presión Humedad
    00:00 +6°C° 0 mm 0 mps 653 mmHg 53%
    01:00 +6°C° 0 mm 0 mps 653 mmHg 54%
    02:00 +5°C° 0 mm 0 mps 653 mmHg 56%
    03:00 +5°C° 0 mm 0 mps 653 mmHg 58%
    04:00 +5°C° 0 mm 0 mps 652 mmHg 59%
    05:00 +4°C° 0 mm 0 mps 652 mmHg 60%
    06:00 +5°C° 0 mm 0 mps 653 mmHg 57%
    07:00 +6°C° 0 mm 0 mps 653 mmHg 54%
    08:00 +7°C° 0 mm 0 mps 654 mmHg 51%
    09:00 +11°C° 0 mm 1 mps 654 mmHg 47%
    10:00 +13°C° 0 mm 1 mps 655 mmHg 42%
    11:00 +15°C° 0 mm 2 mps 655 mmHg 38%
    12:00 +16°C° 0 mm 2 mps 655 mmHg 37%
    13:00 +17°C° 0 mm 2 mps 654 mmHg 36%
    14:00 +18°C° 0 mm 3 mps 653 mmHg 36%
    15:00 +17°C° 0 mm 2 mps 653 mmHg 38%
    16:00 +16°C° 0 mm 2 mps 652 mmHg 40%
    17:00 +16°C° 0 mm 2 mps 652 mmHg 42%
    18:00 +14°C° 0 mm 1 mps 652 mmHg 48%
    19:00 +12°C° 0 mm 1 mps 652 mmHg 54%
    20:00 +10°C° 0 mm 1 mps 651 mmHg 60%
    21:00 +8°C° 0 mm 0 mps 651 mmHg 62%
    22:00 +7°C° 0 mm 0 mps 651 mmHg 65%
    23:00 +7°C° 0 mm 0 mps 651 mmHg 67%

    28 Julio, Domingo

    Tiempo Temperatura Precipitaciones Viento Presión Humedad
    00:00 +6°C° 0 mm 0 mps 651 mmHg 70%
    01:00 +6°C° 0 mm 0 mps 651 mmHg 72%
    02:00 +6°C° 0 mm 0 mps 651 mmHg 75%
    03:00 +5°C° 0 mm 0 mps 650 mmHg 76%
    04:00 +5°C° 0 mm 0 mps 650 mmHg 76%
    05:00 +6°C° 0 mm 1 mps 650 mmHg 77%
    06:00 +7°C° 0 mm 1 mps 650 mmHg 74%
    07:00 +8°C° 0 mm 1 mps 651 mmHg 71%
    08:00 +8°C° 0 mm 1 mps 651 mmHg 67%
    09:00 +11°C° 0 mm 1 mps 652 mmHg 59%
    10:00 +14°C° 0 mm 1 mps 653 mmHg 52%
    11:00 +18°C° 0 mm 1 mps 653 mmHg 44%
    12:00 +19°C° 0 mm 1 mps 653 mmHg 41%
    13:00 +19°C° 0 mm 2 mps 652 mmHg 37%
    14:00 +20°C° 0 mm 2 mps 651 mmHg 34%
    15:00 +20°C° 0 mm 2 mps 651 mmHg 36%
    16:00 +19°C° 0 mm 2 mps 651 mmHg 38%
    17:00 +19°C° 0 mm 1 mps 651 mmHg 40%
    18:00 +16°C° 0 mm 1 mps 651 mmHg 46%
    19:00 +14°C° 0 mm 1 mps 650 mmHg 52%
    20:00 +12°C° 0 mm 1 mps 650 mmHg 58%
    21:00 +11°C° 0 mm 1 mps 650 mmHg 61%
    22:00 +10°C° 0 mm 1 mps 650 mmHg 63%
    23:00 +10°C° 0 mm 1 mps 650 mmHg 65%

    29 Julio, Lunes

    Tiempo Temperatura Precipitaciones Viento Presión Humedad
    00:00 +10°C° 0 mm 1 mps 650 mmHg 66%
    01:00 +10°C° 0 mm 1 mps 650 mmHg 66%
    02:00 +9°C° 0 mm 1 mps 650 mmHg 66%
    03:00 +9°C° 0 mm 1 mps 650 mmHg 64%
    04:00 +9°C° 0 mm 1 mps 650 mmHg 62%
    05:00 +8°C° 0 mm 2 mps 650 mmHg 60%
    06:00 +10°C° 0 mm 1 mps 651 mmHg 58%
    07:00 +10°C° 0 mm 1 mps 651 mmHg 55%
    08:00 +11°C° 0 mm 1 mps 652 mmHg 53%
    09:00 +14°C° 0 mm 1 mps 653 mmHg 48%
    10:00 +18°C° 0 mm 1 mps 654 mmHg 44%
    11:00 +21°C° 0 mm 1 mps 655 mmHg 40%
    12:00 +22°C° 0 mm 1 mps 654 mmHg 38%
    13:00 +23°C° 0 mm 2 mps 654 mmHg 36%
    14:00 +23°C° 0 mm 2 mps 654 mmHg 34%
    15:00 +23°C° 0 mm 2 mps 653 mmHg 38%
    16:00 +21°C° 0 mm 2 mps 653 mmHg 41%
    17:00 +20°C° 0 mm 2 mps 653 mmHg 45%
    18:00 +18°C° 0 mm 2 mps 653 mmHg 54%
    19:00 +15°C° 0 mm 1 mps 653 mmHg 63%
    20:00 +13°C° 0 mm 1 mps 653 mmHg 73%
    21:00 +13°C° 0 mm 1 mps 653 mmHg 74%
    22:00 +12°C° 0 mm 1 mps 653 mmHg 75%
    23:00 +12°C° 0 mm 1 mps 653 mmHg 77%
    Mostrar más